Location: Unspecified
(49.2170°N, 0.0000°E)
Time: 15:13:10
(UTC+00:00)

Courier 1B - All Passes

Search period start: 23 January 2021 00:00
Search period end: 02 February 2021 00:00
Orbit: 962 x 1209 km, 28.3° (Epoch: 23 January)

Date Brightness Start Highest point End Pass type
(mag) Time Alt. Az. Time Alt. Az. Time Alt. Az.
23 Jan - 01:46:49 10° SSW 01:48:08 11° S 01:49:27 10° SSE night (unlit)
24 Jan - 00:53:44 10° S 00:54:45 10° S 00:55:46 10° SSE night (unlit)
26 Jan - 00:59:12 10° SSW 01:00:31 11° S 01:01:50 10° S night (unlit)
27 Jan - 00:05:30 10° SSW 00:07:08 11° S 00:08:45 10° SSE night (unlit)
27 Jan - 23:12:09 10° S 23:13:45 11° S 23:15:20 10° SSE night (unlit)
28 Jan - 22:19:14 10° S 22:20:21 10° S 22:21:28 10° SSE night (unlit)
29 Jan - 00:11:37 10° SSW 00:12:53 11° S 00:14:09 10° S night (unlit)
29 Jan - 23:17:27 10° SSW 23:19:30 11° S 23:21:31 10° SSE night (unlit)
30 Jan - 22:23:44 10° SSW 22:26:05 12° S 22:28:24 10° SSE night (unlit)
31 Jan - 21:30:16 10° SSW 21:32:40 12° S 21:35:01 10° SSE visible
31 Jan - 23:24:06 10° SSW 23:25:13 10° S 23:26:21 10° S night (unlit)
01 Feb - 20:37:05 10° S 20:39:13 11° S 20:41:18 10° SSE visible
01 Feb - 22:29:30 10° SSW 22:31:49 12° S 22:34:05 10° SSE night (unlit)
